Time,TemperatureF,DewpointF,PressureIn,WindDirection,WindDirectionDegrees,WindSpeedMPH,WindSpeedGustMPH,Humidity,HourlyPrecipIn,Conditions,Clouds,dailyrainin,SoftwareType,DateUTC
2013-04-25 00:01:00,40.3,24.5,29.93,ESE,104,0.0,0.0,53,0.00,,---,0.00,VWS V13.01,2013-04-25 06:01:00,
2013-04-25 00:06:00,40.5,23.3,29.93,NE,35,0.0,3.0,50,0.00,,---,0.00,VWS V13.01,2013-04-25 06:06:00,
2013-04-25 00:11:00,40.6,23.9,29.93,NE,35,0.0,0.0,51,0.00,,---,0.00,VWS V13.01,2013-04-25 06:11:00,
2013-04-25 00:16:00,40.6,21.5,29.91,NE,35,0.0,0.0,46,0.00,,---,0.00,VWS V13.01,2013-04-25 06:16:00,
2013-04-25 00:21:00,40.6,24.8,29.91,NE,35,0.0,0.0,53,0.00,,---,0.00,VWS V13.01,2013-04-25 06:21:00,
2013-04-25 00:26:00,40.6,22.0,29.91,NE,35,0.0,0.0,47,0.00,,---,0.00,VWS V13.01,2013-04-25 06:26:00,
2013-04-25 00:31:00,40.8,20.6,29.91,NE,35,0.0,0.0,44,0.00,,---,0.00,VWS V13.01,2013-04-25 06:31:00,
2013-04-25 00:36:00,41.1,20.3,29.91,NE,35,0.0,0.0,43,0.00,,---,0.00,VWS V13.01,2013-04-25 06:36:00,
2013-04-25 00:41:00,41.3,20.0,29.91,NE,35,0.0,0.0,42,0.00,,---,0.00,VWS V13.01,2013-04-25 06:41:00,
2013-04-25 00:46:00,41.6,21.3,29.90,NE,35,0.0,0.0,44,0.00,,---,0.00,VWS V13.01,2013-04-25 06:46:00,
2013-04-25 00:51:00,41.9,21.0,29.90,NE,35,0.0,0.0,43,0.00,,---,0.00,VWS V13.01,2013-04-25 06:51:00,
2013-04-25 00:56:00,42.1,18.3,29.90,NE,35,0.0,0.0,38,0.00,,---,0.00,VWS V13.01,2013-04-25 06:56:00,
2013-04-25 01:01:00,42.2,22.9,29.90,NE,35,0.0,0.0,46,0.00,,---,0.00,VWS V13.01,2013-04-25 07:01:00,
2013-04-25 01:06:00,42.2,19.6,29.90,NE,35,0.0,0.0,40,0.00,,---,0.00,VWS V13.01,2013-04-25 07:06:00,
2013-04-25 01:11:00,42.1,19.5,29.90,NE,35,0.0,0.0,40,0.00,,---,0.00,VWS V13.01,2013-04-25 07:11:00,
2013-04-25 01:16:00,42.1,20.1,29.87,East,84,1.0,1.0,41,0.00,,---,0.00,VWS V13.01,2013-04-25 07:16:00,
2013-04-25 01:21:00,41.8,21.5,29.87,East,84,0.0,1.0,44,0.00,,---,0.00,VWS V13.01,2013-04-25 07:21:00,
2013-04-25 01:26:00,41.5,24.3,29.87,East,84,0.0,0.0,50,0.00,,---,0.00,VWS V13.01,2013-04-25 07:26:00,
2013-04-25 01:31:00,40.9,22.2,29.87,East,84,0.0,0.0,47,0.00,,---,0.00,VWS V13.01,2013-04-25 07:31:00,
2013-04-25 01:36:00,40.6,22.0,29.87,East,84,0.0,0.0,47,0.00,,---,0.00,VWS V13.01,2013-04-25 07:36:00,
2013-04-25 01:41:00,40.2,24.0,29.87,East,84,0.0,0.0,52,0.00,,---,0.00,VWS V13.01,2013-04-25 07:41:00,
2013-04-25 01:47:00,39.8,24.1,29.88,East,84,0.0,0.0,53,0.00,,---,0.00,VWS V13.01,2013-04-25 07:47:00,
2013-04-25 01:52:00,39.3,24.1,29.88,East,84,0.0,0.0,54,0.00,,---,0.00,VWS V13.01,2013-04-25 07:52:00,
2013-04-25 01:57:00,39.1,23.9,29.88,East,84,0.0,0.0,54,0.00,,---,0.00,VWS V13.01,2013-04-25 07:57:00,
2013-04-25 02:02:00,38.8,24.0,29.88,East,84,0.0,0.0,55,0.00,,---,0.00,VWS V13.01,2013-04-25 08:02:00,
2013-04-25 02:07:00,38.6,23.0,29.88,East,84,0.0,0.0,53,0.00,,---,0.00,VWS V13.01,2013-04-25 08:07:00,
2013-04-25 02:12:00,38.8,23.1,29.88,East,84,0.0,0.0,53,0.00,,---,0.00,VWS V13.01,2013-04-25 08:12:00,
2013-04-25 02:17:00,38.8,23.1,29.86,East,84,0.0,0.0,53,0.00,,---,0.00,VWS V13.01,2013-04-25 08:17:00,
2013-04-25 02:22:00,38.8,23.1,29.86,East,84,0.0,0.0,53,0.00,,---,0.00,VWS V13.01,2013-04-25 08:22:00,
2013-04-25 02:27:00,38.8,23.1,29.86,East,84,0.0,0.0,53,0.00,,---,0.00,VWS V13.01,2013-04-25 08:27:00,
2013-04-25 02:32:00,38.6,23.4,29.86,East,84,0.0,0.0,54,0.00,,---,0.00,VWS V13.01,2013-04-25 08:32:00,
2013-04-25 02:37:00,38.5,23.8,29.86,East,84,0.0,0.0,55,0.00,,---,0.00,VWS V13.01,2013-04-25 08:37:00,
2013-04-25 02:42:00,38.3,22.7,29.86,East,84,0.0,0.0,53,0.00,,---,0.00,VWS V13.01,2013-04-25 08:42:00,
2013-04-25 02:47:00,38.3,23.6,29.85,East,84,0.0,0.0,55,0.00,,---,0.00,VWS V13.01,2013-04-25 08:47:00,
2013-04-25 02:52:00,38.2,23.9,29.85,East,84,0.0,0.0,56,0.00,,---,0.00,VWS V13.01,2013-04-25 08:52:00,
2013-04-25 02:57:00,37.9,23.6,29.85,East,84,0.0,0.0,56,0.00,,---,0.00,VWS V13.01,2013-04-25 08:57:00,
2013-04-25 03:03:00,37.9,22.8,29.85,East,84,0.0,0.0,54,0.00,,---,0.00,VWS V13.01,2013-04-25 09:03:00,
2013-04-25 03:08:00,37.8,23.5,29.85,East,84,0.0,0.0,56,0.00,,---,0.00,VWS V13.01,2013-04-25 09:08:00,
2013-04-25 03:13:00,37.6,23.3,29.85,East,84,0.0,0.0,56,0.00,,---,0.00,VWS V13.01,2013-04-25 09:13:00,
2013-04-25 03:18:00,37.6,23.3,29.83,East,84,0.0,0.0,56,0.00,,---,0.00,VWS V13.01,2013-04-25 09:18:00,
2013-04-25 03:23:00,37.5,23.2,29.83,East,84,0.0,0.0,56,0.00,,---,0.00,VWS V13.01,2013-04-25 09:23:00,
2013-04-25 03:28:00,37.3,23.1,29.83,East,84,0.0,0.0,56,0.00,,---,0.00,VWS V13.01,2013-04-25 09:28:00,
2013-04-25 03:33:00,37.2,23.4,29.84,East,84,0.0,0.0,57,0.00,,---,0.00,VWS V13.01,2013-04-25 09:33:00,
2013-04-25 03:38:00,37.0,23.2,29.84,East,84,0.0,0.0,57,0.00,,---,0.00,VWS V13.01,2013-04-25 09:38:00,
2013-04-25 03:43:00,36.9,22.7,29.84,East,84,0.0,0.0,56,0.00,,---,0.00,VWS V13.01,2013-04-25 09:43:00,
2013-04-25 03:48:00,36.9,23.1,29.84,East,84,0.0,0.0,57,0.00,,---,0.00,VWS V13.01,2013-04-25 09:48:00,
2013-04-25 03:53:00,36.6,22.4,29.84,East,84,0.0,0.0,56,0.00,,---,0.00,VWS V13.01,2013-04-25 09:53:00,
2013-04-25 03:58:00,36.6,22.4,29.84,East,84,0.0,0.0,56,0.00,,---,0.00,VWS V13.01,2013-04-25 09:58:00,
2013-04-25 04:03:00,36.5,22.3,29.83,East,84,0.0,0.0,56,0.00,,---,0.00,VWS V13.01,2013-04-25 10:03:00,
2013-04-25 04:08:00,36.5,22.3,29.83,East,84,0.0,0.0,56,0.00,,---,0.00,VWS V13.01,2013-04-25 10:08:00,
2013-04-25 04:14:00,36.3,22.1,29.83,East,84,0.0,0.0,56,0.00,,---,0.00,VWS V13.01,2013-04-25 10:14:00,
2013-04-25 04:19:00,36.3,22.1,29.83,East,84,0.0,0.0,56,0.00,,---,0.00,VWS V13.01,2013-04-25 10:19:00,
2013-04-25 04:24:00,36.3,22.5,29.83,East,84,0.0,0.0,57,0.00,,---,0.00,VWS V13.01,2013-04-25 10:24:00,
2013-04-25 04:29:00,36.5,22.3,29.83,East,84,0.0,0.0,56,0.00,,---,0.00,VWS V13.01,2013-04-25 10:29:00,
2013-04-25 04:34:00,36.5,22.7,29.83,East,84,0.0,0.0,57,0.00,,---,0.00,VWS V13.01,2013-04-25 10:34:00,
2013-04-25 04:39:00,36.3,22.5,29.83,East,84,0.0,0.0,57,0.00,,---,0.00,VWS V13.01,2013-04-25 10:39:00,
2013-04-25 04:44:00,36.3,22.1,29.83,East,84,0.0,0.0,56,0.00,,---,0.00,VWS V13.01,2013-04-25 10:44:00,
2013-04-25 04:49:00,36.3,21.7,29.84,East,84,0.0,0.0,55,0.00,,---,0.00,VWS V13.01,2013-04-25 10:49:00,
2013-04-25 04:54:00,36.5,22.3,29.84,East,84,0.0,0.0,56,0.00,,---,0.00,VWS V13.01,2013-04-25 10:54:00,
2013-04-25 04:59:00,36.5,22.3,29.84,East,84,0.0,0.0,56,0.00,,---,0.00,VWS V13.01,2013-04-25 10:59:00,
2013-04-25 05:04:00,36.5,22.7,29.83,East,84,0.0,0.0,57,0.00,,---,0.00,VWS V13.01,2013-04-25 11:04:00,
2013-04-25 05:09:00,36.2,22.0,29.83,East,84,0.0,0.0,56,0.00,,---,0.00,VWS V13.01,2013-04-25 11:09:00,
2013-04-25 05:14:00,36.2,22.0,29.83,East,84,0.0,0.0,56,0.00,,---,0.00,VWS V13.01,2013-04-25 11:14:00,
2013-04-25 05:19:00,36.0,22.7,29.88,East,84,0.0,0.0,58,0.00,,---,0.00,VWS V13.01,2013-04-25 11:19:00,
2013-04-25 05:24:00,36.0,22.3,29.88,East,84,0.0,0.0,57,0.00,,---,0.00,VWS V13.01,2013-04-25 11:24:00,
2013-04-25 05:30:00,36.0,22.7,29.88,East,84,0.0,0.0,58,0.00,,---,0.00,VWS V13.01,2013-04-25 11:30:00,
2013-04-25 05:35:00,36.0,22.3,29.88,East,84,0.0,0.0,57,0.00,,---,0.00,VWS V13.01,2013-04-25 11:35:00,
2013-04-25 05:40:00,36.0,21.8,29.88,East,84,0.0,1.0,56,0.00,,---,0.00,VWS V13.01,2013-04-25 11:40:00,
2013-04-25 05:45:00,36.2,22.0,29.88,East,84,0.0,0.0,56,0.00,,---,0.00,VWS V13.01,2013-04-25 11:45:00,
2013-04-25 05:50:00,36.3,22.5,29.88,East,84,0.0,0.0,57,0.00,,---,0.00,VWS V13.01,2013-04-25 11:50:00,
2013-04-25 05:55:00,36.5,23.1,29.88,East,84,0.0,1.0,58,0.00,,---,0.00,VWS V13.01,2013-04-25 11:55:00,
2013-04-25 06:00:00,36.5,21.0,29.88,East,84,0.0,1.0,53,0.00,,---,0.00,VWS V13.01,2013-04-25 12:00:00,
2013-04-25 06:05:00,36.8,18.5,29.87,NE,40,0.0,2.0,47,0.00,,---,0.00,VWS V13.01,2013-04-25 12:05:00,
2013-04-25 06:10:00,37.2,20.8,29.87,East,80,0.0,3.0,51,0.00,,---,0.00,VWS V13.01,2013-04-25 12:10:00,
2013-04-25 06:15:00,37.3,20.9,29.87,NNE,31,0.0,1.0,51,0.00,,---,0.00,VWS V13.01,2013-04-25 12:15:00,
2013-04-25 06:20:00,37.5,19.1,29.91,ENE,61,0.0,5.0,47,0.00,,---,0.00,VWS V13.01,2013-04-25 12:20:00,
2013-04-25 06:25:00,37.8,20.8,29.91,NNW,335,0.0,3.0,50,0.00,,---,0.00,VWS V13.01,2013-04-25 12:25:00,
2013-04-25 06:30:00,38.0,19.6,29.91,NW,321,1.0,3.0,47,0.00,,---,0.00,VWS V13.01,2013-04-25 12:30:00,
2013-04-25 06:35:00,38.2,19.3,29.91,ENE,78,0.0,1.0,46,0.00,,---,0.00,VWS V13.01,2013-04-25 12:35:00,
2013-04-25 06:41:00,38.3,19.4,29.91,North,360,0.0,2.0,46,0.00,,---,0.00,VWS V13.01,2013-04-25 12:41:00,
2013-04-25 06:46:00,38.2,22.1,29.91,East,80,0.0,3.0,52,0.00,,---,0.00,VWS V13.01,2013-04-25 12:46:00,
2013-04-25 06:51:00,38.0,20.5,29.91,ESE,102,0.0,1.0,49,0.00,,---,0.00,VWS V13.01,2013-04-25 12:51:00,
2013-04-25 06:56:00,38.0,21.5,29.91,ESE,102,0.0,0.0,51,0.00,,---,0.00,VWS V13.01,2013-04-25 12:56:00,
2013-04-25 07:01:00,38.0,21.5,29.92,ESE,102,0.0,0.0,51,0.00,,---,0.00,VWS V13.01,2013-04-25 13:01:00,
2013-04-25 07:06:00,38.2,22.6,29.92,East,83,0.0,2.0,53,0.00,,---,0.00,VWS V13.01,2013-04-25 13:06:00,
2013-04-25 07:11:00,38.5,22.4,29.92,East,83,0.0,0.0,52,0.00,,---,0.00,VWS V13.01,2013-04-25 13:11:00,
2013-04-25 07:16:00,38.9,22.3,29.92,East,83,1.0,2.0,51,0.00,,---,0.00,VWS V13.01,2013-04-25 13:16:00,
2013-04-25 07:21:00,39.5,22.4,29.92,NE,51,0.0,1.0,50,0.00,,---,0.00,VWS V13.01,2013-04-25 13:21:00,
2013-04-25 07:26:00,40.2,21.1,29.92,NNE,17,0.0,3.0,46,0.00,,---,0.00,VWS V13.01,2013-04-25 13:26:00,
2013-04-25 07:31:00,41.1,21.4,29.91,NE,53,1.0,6.0,45,0.00,,---,0.00,VWS V13.01,2013-04-25 13:31:00,
2013-04-25 07:36:00,41.9,21.6,29.91,West,264,1.0,4.0,44,0.00,,---,0.00,VWS V13.01,2013-04-25 13:36:00,
2013-04-25 07:41:00,42.5,20.5,29.91,ENE,72,3.0,5.0,41,0.00,,---,0.00,VWS V13.01,2013-04-25 13:41:00,
2013-04-25 07:46:00,42.8,21.3,29.90,NNW,334,2.0,3.0,42,0.00,,---,0.00,VWS V13.01,2013-04-25 13:46:00,
2013-04-25 07:51:00,43.1,21.0,29.90,NNW,344,3.0,4.0,41,0.00,,---,0.00,VWS V13.01,2013-04-25 13:51:00,
2013-04-25 07:56:00,43.3,20.6,29.90,NNE,24,0.0,4.0,40,0.00,,---,0.00,VWS V13.01,2013-04-25 13:56:00,
2013-04-25 08:01:00,43.5,20.8,29.91,NW,317,0.0,5.0,40,0.00,,---,0.00,VWS V13.01,2013-04-25 14:01:00,
2013-04-25 08:06:00,43.6,23.1,29.91,NNW,337,3.0,3.0,44,0.00,,---,0.00,VWS V13.01,2013-04-25 14:06:00,
2013-04-25 08:11:00,43.8,21.1,29.91,ESE,114,4.0,4.0,40,0.00,,---,0.00,VWS V13.01,2013-04-25 14:11:00,
2013-04-25 08:17:00,44.1,20.7,29.90,ENE,66,2.0,4.0,39,0.00,,---,0.00,VWS V13.01,2013-04-25 14:17:00,
2013-04-25 08:22:00,44.2,20.8,29.90,North,5,1.0,1.0,39,0.00,,---,0.00,VWS V13.01,2013-04-25 14:22:00,
2013-04-25 08:27:00,44.3,20.9,29.90,ENE,75,1.0,2.0,39,0.00,,---,0.00,VWS V13.01,2013-04-25 14:27:00,
2013-04-25 08:32:00,44.5,21.7,29.90,East,81,1.0,3.0,40,0.00,,---,0.00,VWS V13.01,2013-04-25 14:32:00,
2013-04-25 08:37:00,44.6,20.0,29.90,NNE,28,0.0,0.0,37,0.00,,---,0.00,VWS V13.01,2013-04-25 14:37:00,
2013-04-25 08:42:00,44.9,21.5,29.90,NNE,28,0.0,1.0,39,0.00,,---,0.00,VWS V13.01,2013-04-25 14:42:00,
2013-04-25 08:47:00,45.4,23.7,29.90,NNE,28,0.0,0.0,42,0.00,,---,0.00,VWS V13.01,2013-04-25 14:47:00,
2013-04-25 08:52:00,46.0,23.6,29.90,West,268,1.0,1.0,41,0.00,,---,0.00,VWS V13.01,2013-04-25 14:52:00,
2013-04-25 08:57:00,46.5,21.6,29.90,East,96,0.0,0.0,37,0.00,,---,0.00,VWS V13.01,2013-04-25 14:57:00,
2013-04-25 09:02:00,47.0,20.8,29.89,South,191,0.0,1.0,35,0.00,,---,0.00,VWS V13.01,2013-04-25 15:02:00,
2013-04-25 09:07:00,47.3,20.4,29.89,NW,312,0.0,4.0,34,0.00,,---,0.00,VWS V13.01,2013-04-25 15:07:00,
2013-04-25 09:13:00,47.4,19.8,29.89,East,96,0.0,4.0,33,0.00,,---,0.00,VWS V13.01,2013-04-25 15:13:00,
2013-04-25 09:18:00,47.6,20.6,29.88,NNE,30,2.0,2.0,34,0.00,,---,0.00,VWS V13.01,2013-04-25 15:18:00,
2013-04-25 09:23:00,47.9,18.7,29.88,NNE,22,2.0,4.0,31,0.00,,---,0.00,VWS V13.01,2013-04-25 15:23:00,
2013-04-25 09:28:00,48.0,20.3,29.88,NNW,331,0.0,3.0,33,0.00,,---,0.00,VWS V13.01,2013-04-25 15:28:00,
2013-04-25 09:33:00,48.2,19.0,29.88,ESE,109,0.0,1.0,31,0.00,,---,0.00,VWS V13.01,2013-04-25 15:33:00,
2013-04-25 09:38:00,48.3,21.2,29.88,NNE,31,0.0,0.0,34,0.00,,---,0.00,VWS V13.01,2013-04-25 15:38:00,
2013-04-25 09:43:00,48.3,19.1,29.88,North,9,2.0,3.0,31,0.00,,---,0.00,VWS V13.01,2013-04-25 15:43:00,
2013-04-25 09:48:00,48.5,19.3,29.86,NNE,15,1.0,2.0,31,0.00,,---,0.00,VWS V13.01,2013-04-25 15:48:00,
2013-04-25 09:53:00,48.6,18.6,29.86,NNE,27,2.0,10.0,30,0.00,,---,0.00,VWS V13.01,2013-04-25 15:53:00,
2013-04-25 09:58:00,48.9,19.6,29.86,NNE,26,1.0,5.0,31,0.00,,---,0.00,VWS V13.01,2013-04-25 15:58:00,
2013-04-25 10:03:00,49.4,18.5,29.86,West,264,0.0,11.0,29,0.00,,---,0.00,VWS V13.01,2013-04-25 16:03:00,
2013-04-25 10:08:00,49.8,20.4,29.86,West,280,2.0,4.0,31,0.00,,---,0.00,VWS V13.01,2013-04-25 16:08:00,
2013-04-25 10:13:00,50.5,18.6,29.86,WSW,244,0.0,2.0,28,0.00,,---,0.00,VWS V13.01,2013-04-25 16:13:00,
2013-04-25 10:18:00,51.1,20.0,29.87,ENE,72,0.0,2.0,29,0.00,,---,0.00,VWS V13.01,2013-04-25 16:18:00,
2013-04-25 10:23:00,51.3,18.5,29.87,East,82,0.0,4.0,27,0.00,,---,0.00,VWS V13.01,2013-04-25 16:23:00,
2013-04-25 10:28:00,51.4,18.6,29.87,WSW,257,2.0,2.0,27,0.00,,---,0.00,VWS V13.01,2013-04-25 16:28:00,
2013-04-25 10:34:00,51.3,19.3,29.87,NW,309,0.0,6.0,28,0.00,,---,0.00,VWS V13.01,2013-04-25 16:34:00,
2013-04-25 10:39:00,51.7,20.5,29.87,NNW,344,0.0,5.0,29,0.00,,---,0.00,VWS V13.01,2013-04-25 16:39:00,
2013-04-25 10:44:00,52.3,19.3,29.87,ESE,113,0.0,7.0,27,0.00,,---,0.00,VWS V13.01,2013-04-25 16:44:00,
2013-04-25 10:49:00,53.1,19.1,29.85,NW,322,0.0,11.0,26,0.00,,---,0.00,VWS V13.01,2013-04-25 16:49:00,
2013-04-25 10:54:00,53.8,20.6,29.85,ENE,62,4.0,7.0,27,0.00,,---,0.00,VWS V13.01,2013-04-25 16:54:00,
2013-04-25 10:59:00,54.4,20.2,29.85,West,265,0.0,16.0,26,0.00,,---,0.00,VWS V13.01,2013-04-25 16:59:00,
2013-04-25 11:04:00,55.0,19.8,29.84,SSE,167,0.0,12.0,25,0.00,,---,0.00,VWS V13.01,2013-04-25 17:04:00,
2013-04-25 11:09:00,55.4,21.1,29.84,ENE,74,0.0,4.0,26,0.00,,---,0.00,VWS V13.01,2013-04-25 17:09:00,
2013-04-25 11:14:00,55.7,20.4,29.84,NNW,330,0.0,11.0,25,0.00,,---,0.00,VWS V13.01,2013-04-25 17:14:00,
2013-04-25 11:19:00,55.9,21.5,29.85,WSW,246,0.0,6.0,26,0.00,,---,0.00,VWS V13.01,2013-04-25 17:19:00,
2013-04-25 11:24:00,55.7,21.4,29.85,West,260,6.0,12.0,26,0.00,,---,0.00,VWS V13.01,2013-04-25 17:24:00,
2013-04-25 11:29:00,55.0,21.6,29.85,WNW,291,0.0,3.0,27,0.00,,---,0.00,VWS V13.01,2013-04-25 17:29:00,
2013-04-25 11:34:00,55.0,19.8,29.85,North,349,0.0,6.0,25,0.00,,---,0.00,VWS V13.01,2013-04-25 17:34:00,
2013-04-25 11:40:00,55.6,20.4,29.85,WSW,257,0.0,5.0,25,0.00,,---,0.00,VWS V13.01,2013-04-25 17:40:00,
2013-04-25 11:45:00,56.5,21.1,29.85,NE,54,0.0,4.0,25,0.00,,---,0.00,VWS V13.01,2013-04-25 17:45:00,
2013-04-25 11:50:00,57.2,20.8,29.83,WNW,298,1.0,6.0,24,0.00,,---,0.00,VWS V13.01,2013-04-25 17:50:00,
2013-04-25 11:55:00,58.0,21.4,29.83,ESE,115,0.0,11.0,24,0.00,,---,0.00,VWS V13.01,2013-04-25 17:55:00,
2013-04-25 12:00:00,57.6,20.1,29.83,NNE,15,5.0,7.0,23,0.00,,---,0.00,VWS V13.01,2013-04-25 18:00:00,
2013-04-25 12:05:00,58.3,19.6,29.82,North,355,1.0,9.0,22,0.00,,---,0.00,VWS V13.01,2013-04-25 18:05:00,
2013-04-25 12:10:00,58.3,20.7,29.82,North,5,9.0,11.0,23,0.00,,---,0.00,VWS V13.01,2013-04-25 18:10:00,
2013-04-25 12:15:00,58.4,19.7,29.82,ENE,69,2.0,16.0,22,0.00,,---,0.00,VWS V13.01,2013-04-25 18:15:00,
2013-04-25 12:21:00,58.6,20.9,29.81,NE,38,4.0,7.0,23,0.00,,---,0.00,VWS V13.01,2013-04-25 18:21:00,
2013-04-25 12:26:00,59.0,19.1,29.81,North,5,1.0,10.0,21,0.00,,---,0.00,VWS V13.01,2013-04-25 18:26:00,
2013-04-25 12:31:00,59.0,19.1,29.81,NNW,339,1.0,12.0,21,0.00,,---,0.00,VWS V13.01,2013-04-25 18:31:00,
2013-04-25 12:36:00,59.2,20.4,29.81,NNW,329,2.0,7.0,22,0.00,,---,0.00,VWS V13.01,2013-04-25 18:36:00,
2013-04-25 12:41:00,59.9,21.0,29.81,NNE,25,13.0,15.0,22,0.00,,---,0.00,VWS V13.01,2013-04-25 18:41:00,
2013-04-25 12:46:00,59.8,22.0,29.78,NE,51,0.0,9.0,23,0.00,,---,0.00,VWS V13.01,2013-04-25 18:46:00,
2013-04-25 12:51:00,59.8,20.9,29.78,NW,325,0.0,10.0,22,0.00,,---,0.00,VWS V13.01,2013-04-25 18:51:00,
2013-04-25 12:56:00,59.6,20.7,29.78,SE,135,0.0,15.0,22,0.00,,---,0.00,VWS V13.01,2013-04-25 18:56:00,
2013-04-25 13:01:00,59.3,19.4,29.80,SW,227,0.0,3.0,21,0.00,,---,0.00,VWS V13.01,2013-04-25 19:01:00,
2013-04-25 13:06:00,58.9,20.1,29.80,North,9,4.0,4.0,22,0.00,,---,0.00,VWS V13.01,2013-04-25 19:06:00,
2013-04-25 13:11:00,59.0,20.2,29.80,WNW,303,4.0,11.0,22,0.00,,---,0.00,VWS V13.01,2013-04-25 19:11:00,
2013-04-25 13:16:00,58.1,20.5,29.81,East,81,0.0,11.0,23,0.00,,---,0.00,VWS V13.01,2013-04-25 19:16:00,
2013-04-25 13:21:00,57.5,20.0,29.81,SW,234,0.0,6.0,23,0.00,,---,0.00,VWS V13.01,2013-04-25 19:21:00,
2013-04-25 13:26:00,57.8,21.3,29.81,West,261,0.0,1.0,24,0.00,,---,0.00,VWS V13.01,2013-04-25 19:26:00,
2013-04-25 13:32:00,59.2,22.5,29.79,ENE,64,4.0,4.0,24,0.00,,---,0.00,VWS V13.01,2013-04-25 19:32:00,
2013-04-25 13:37:00,60.5,19.2,29.79,WNW,292,0.0,1.0,20,0.00,,---,0.00,VWS V13.01,2013-04-25 19:37:00,
2013-04-25 13:42:00,61.3,21.1,29.79,NNE,28,1.0,1.0,21,0.00,,---,0.00,VWS V13.01,2013-04-25 19:42:00,
2013-04-25 13:47:00,62.3,23.0,29.78,NNE,28,0.0,0.0,22,0.00,,---,0.00,VWS V13.01,2013-04-25 19:47:00,
2013-04-25 13:52:00,63.5,20.5,29.78,SSE,148,1.0,4.0,19,0.00,,---,0.00,VWS V13.01,2013-04-25 19:52:00,
2013-04-25 13:57:00,63.5,20.5,29.78,West,273,1.0,2.0,19,0.00,,---,0.00,VWS V13.01,2013-04-25 19:57:00,
2013-04-25 14:02:00,62.0,19.3,29.78,NE,51,6.0,6.0,19,0.00,,---,0.00,VWS V13.01,2013-04-25 20:02:00,
2013-04-25 14:07:00,61.3,19.9,29.78,SSW,211,3.0,4.0,20,0.00,,---,0.00,VWS V13.01,2013-04-25 20:07:00,
2013-04-25 14:12:00,61.0,19.7,29.78,ENE,73,3.0,11.0,20,0.00,,---,0.00,VWS V13.01,2013-04-25 20:12:00,
2013-04-25 14:17:00,60.9,20.7,29.78,North,360,2.0,4.0,21,0.00,,---,0.00,VWS V13.01,2013-04-25 20:17:00,
2013-04-25 14:22:00,61.8,20.3,29.78,NE,36,1.0,10.0,20,0.00,,---,0.00,VWS V13.01,2013-04-25 20:22:00,
2013-04-25 14:27:00,63.9,19.6,29.78,North,355,10.0,14.0,18,0.00,,---,0.00,VWS V13.01,2013-04-25 20:27:00,
2013-04-25 14:32:00,65.2,20.7,29.77,NNE,22,0.0,2.0,18,0.00,,---,0.00,VWS V13.01,2013-04-25 20:32:00,
2013-04-25 14:37:00,66.0,21.3,29.77,NNE,30,1.0,2.0,18,0.00,,---,0.00,VWS V13.01,2013-04-25 20:37:00,
2013-04-25 14:43:00,67.1,20.9,29.77,NNW,331,3.0,3.0,17,0.00,,---,0.00,VWS V13.01,2013-04-25 20:43:00,
2013-04-25 14:48:00,67.1,20.9,29.75,NNW,329,0.0,5.0,17,0.00,,---,0.00,VWS V13.01,2013-04-25 20:48:00,
2013-04-25 14:53:00,67.3,22.4,29.75,ENE,65,3.0,9.0,18,0.00,,---,0.00,VWS V13.01,2013-04-25 20:53:00,
2013-04-25 14:58:00,66.3,21.6,29.75,SSW,202,4.0,4.0,18,0.00,,---,0.00,VWS V13.01,2013-04-25 20:58:00,
2013-04-25 15:03:00,66.4,20.3,29.76,NE,36,1.0,6.0,17,0.00,,---,0.00,VWS V13.01,2013-04-25 21:03:00,
2013-04-25 15:08:00,67.3,21.0,29.76,NNE,32,3.0,5.0,17,0.00,,---,0.00,VWS V13.01,2013-04-25 21:08:00,
2013-04-25 15:13:00,67.3,21.0,29.76,NE,34,2.0,5.0,17,0.00,,---,0.00,VWS V13.01,2013-04-25 21:13:00,
2013-04-25 15:18:00,66.8,22.0,29.76,South,182,3.0,6.0,18,0.00,,---,0.00,VWS V13.01,2013-04-25 21:18:00,
2013-04-25 15:23:00,66.1,20.0,29.76,NNW,330,0.0,11.0,17,0.00,,---,0.00,VWS V13.01,2013-04-25 21:23:00,
2013-04-25 15:28:00,65.8,18.4,29.76,NW,316,1.0,9.0,16,0.00,,---,0.00,VWS V13.01,2013-04-25 21:28:00,
2013-04-25 15:34:00,65.2,17.9,29.77,SSE,163,1.0,3.0,16,0.00,,---,0.00,VWS V13.01,2013-04-25 21:34:00,
2013-04-25 15:39:00,64.5,20.1,29.77,WSW,243,3.0,10.0,18,0.00,,---,0.00,VWS V13.01,2013-04-25 21:39:00,
2013-04-25 15:44:00,64.7,20.2,29.77,East,79,1.0,10.0,18,0.00,,---,0.00,VWS V13.01,2013-04-25 21:44:00,
2013-04-25 15:49:00,66.3,18.8,29.76,NNW,340,5.0,13.0,16,0.00,,---,0.00,VWS V13.01,2013-04-25 21:49:00,
2013-04-25 15:54:00,66.9,20.7,29.76,NNW,343,1.0,3.0,17,0.00,,---,0.00,VWS V13.01,2013-04-25 21:54:00,
2013-04-25 15:59:00,67.3,19.6,29.76,NNW,330,2.0,13.0,16,0.00,,---,0.00,VWS V13.01,2013-04-25 21:59:00,
2013-04-25 16:04:00,67.9,21.5,29.76,NNW,327,4.0,6.0,17,0.00,,---,0.00,VWS V13.01,2013-04-25 22:04:00,
2013-04-25 16:09:00,67.6,19.9,29.76,NNE,22,4.0,9.0,16,0.00,,---,0.00,VWS V13.01,2013-04-25 22:09:00,
2013-04-25 16:14:00,67.1,20.9,29.76,NNE,24,0.0,7.0,17,0.00,,---,0.00,VWS V13.01,2013-04-25 22:14:00,
2013-04-25 16:19:00,67.4,19.7,29.75,East,96,0.0,7.0,16,0.00,,---,0.00,VWS V13.01,2013-04-25 22:19:00,
2013-04-25 16:24:00,67.9,20.1,29.75,SE,140,1.0,10.0,16,0.00,,---,0.00,VWS V13.01,2013-04-25 22:24:00,
2013-04-25 16:29:00,68.4,21.9,29.75,NNW,333,5.0,6.0,17,0.00,,---,0.00,VWS V13.01,2013-04-25 22:29:00,
2013-04-25 16:34:00,69.6,21.5,29.74,North,355,0.0,5.0,16,0.00,,---,0.00,VWS V13.01,2013-04-25 22:34:00,
2013-04-25 16:39:00,70.1,20.3,29.74,NE,40,2.0,8.0,15,0.00,,---,0.00,VWS V13.01,2013-04-25 22:39:00,
2013-04-25 16:44:00,70.4,20.6,29.74,ENE,69,4.0,9.0,15,0.00,,---,0.00,VWS V13.01,2013-04-25 22:44:00,
2013-04-25 16:50:00,69.4,21.3,29.75,NE,45,1.0,10.0,16,0.00,,---,0.00,VWS V13.01,2013-04-25 22:50:00,
2013-04-25 16:55:00,68.4,20.5,29.75,WSW,238,0.0,5.0,16,0.00,,---,0.00,VWS V13.01,2013-04-25 22:55:00,
2013-04-25 17:00:00,67.1,19.4,29.75,NNE,28,4.0,9.0,16,0.00,,---,0.00,VWS V13.01,2013-04-25 23:00:00,
2013-04-25 17:05:00,66.1,20.0,29.75,North,5,6.0,10.0,17,0.00,,---,0.00,VWS V13.01,2013-04-25 23:05:00,
2013-04-25 17:10:00,65.0,20.5,29.75,North,355,5.0,11.0,18,0.00,,---,0.00,VWS V13.01,2013-04-25 23:10:00,
2013-04-25 17:15:00,64.3,18.6,29.75,West,265,3.0,9.0,17,0.00,,---,0.00,VWS V13.01,2013-04-25 23:15:00,
2013-04-25 17:20:00,63.7,18.1,29.78,SW,230,0.0,9.0,17,0.00,,---,0.00,VWS V13.01,2013-04-25 23:20:00,
2013-04-25 17:25:00,62.6,19.8,29.78,WNW,302,7.0,13.0,19,0.00,,---,0.00,VWS V13.01,2013-04-25 23:25:00,
2013-04-25 17:30:00,61.8,19.1,29.78,SSE,156,0.0,4.0,19,0.00,,---,0.00,VWS V13.01,2013-04-25 23:30:00,
2013-04-25 17:35:00,61.3,18.7,29.80,NNE,33,0.0,10.0,19,0.00,,---,0.00,VWS V13.01,2013-04-25 23:35:00,
2013-04-25 17:40:00,61.5,18.9,29.80,NE,34,5.0,8.0,19,0.00,,---,0.00,VWS V13.01,2013-04-25 23:40:00,
2013-04-25 17:45:00,61.5,17.6,29.80,NNW,348,1.0,11.0,18,0.00,,---,0.00,VWS V13.01,2013-04-25 23:45:00,
2013-04-25 17:50:00,61.3,19.9,29.81,NNW,347,2.0,6.0,20,0.00,,---,0.00,VWS V13.01,2013-04-25 23:50:00,
2013-04-25 17:55:00,61.2,18.6,29.81,East,82,4.0,6.0,19,0.00,,---,0.00,VWS V13.01,2013-04-25 23:55:00,
2013-04-25 18:00:00,60.9,19.6,29.81,North,360,5.0,5.0,20,0.00,,---,0.00,VWS V13.01,2013-04-26 00:00:00,
2013-04-25 18:06:00,60.7,19.4,29.81,North,5,4.0,9.0,20,0.00,,---,0.00,VWS V13.01,2013-04-26 00:06:00,
2013-04-25 18:11:00,60.5,19.2,29.81,ENE,76,2.0,5.0,20,0.00,,---,0.00,VWS V13.01,2013-04-26 00:11:00,
2013-04-25 18:16:00,60.4,19.2,29.82,SW,232,2.0,8.0,20,0.00,,---,0.00,VWS V13.01,2013-04-26 00:16:00,
2013-04-25 18:21:00,60.1,18.9,29.82,North,360,1.0,13.0,20,0.00,,---,0.00,VWS V13.01,2013-04-26 00:21:00,
2013-04-25 18:26:00,60.1,18.9,29.82,ENE,63,1.0,7.0,20,0.00,,---,0.00,VWS V13.01,2013-04-26 00:26:00,
2013-04-25 18:31:00,59.6,18.5,29.82,WNW,282,1.0,8.0,20,0.00,,---,0.00,VWS V13.01,2013-04-26 00:31:00,
2013-04-25 18:36:00,59.3,19.4,29.82,North,355,1.0,11.0,21,0.00,,---,0.00,VWS V13.01,2013-04-26 00:36:00,
2013-04-25 18:41:00,59.2,19.3,29.82,West,265,0.0,4.0,21,0.00,,---,0.00,VWS V13.01,2013-04-26 00:41:00,
2013-04-25 18:46:00,58.9,20.1,29.83,West,270,1.0,3.0,22,0.00,,---,0.00,VWS V13.01,2013-04-26 00:46:00,
2013-04-25 18:51:00,58.6,19.9,29.83,SE,131,0.0,6.0,22,0.00,,---,0.00,VWS V13.01,2013-04-26 00:51:00,
2013-04-25 18:56:00,58.1,19.5,29.83,East,97,0.0,4.0,22,0.00,,---,0.00,VWS V13.01,2013-04-26 00:56:00,
2013-04-25 19:01:00,57.6,19.1,29.84,NE,49,2.0,7.0,22,0.00,,---,0.00,VWS V13.01,2013-04-26 01:01:00,
2013-04-25 19:06:00,57.5,19.0,29.84,WSW,250,2.0,6.0,22,0.00,,---,0.00,VWS V13.01,2013-04-26 01:06:00,
2013-04-25 19:11:00,57.3,18.8,29.84,ENE,72,1.0,1.0,22,0.00,,---,0.00,VWS V13.01,2013-04-26 01:11:00,
2013-04-25 19:17:00,57.3,19.8,29.83,NNE,18,0.0,0.0,23,0.00,,---,0.00,VWS V13.01,2013-04-26 01:17:00,
2013-04-25 19:22:00,57.0,19.6,29.83,WSW,257,0.0,0.0,23,0.00,,---,0.00,VWS V13.01,2013-04-26 01:22:00,
2013-04-25 19:27:00,56.7,19.3,29.83,WSW,245,1.0,3.0,23,0.00,,---,0.00,VWS V13.01,2013-04-26 01:27:00,
2013-04-25 19:32:00,56.6,19.2,29.84,NNW,341,0.0,2.0,23,0.00,,---,0.00,VWS V13.01,2013-04-26 01:32:00,
2013-04-25 19:37:00,56.5,19.2,29.84,SW,228,0.0,1.0,23,0.00,,---,0.00,VWS V13.01,2013-04-26 01:37:00,
2013-04-25 19:42:00,56.3,19.0,29.84,SW,236,0.0,5.0,23,0.00,,---,0.00,VWS V13.01,2013-04-26 01:42:00,
2013-04-25 19:48:00,56.2,18.9,29.85,WSW,246,1.0,3.0,23,0.00,,---,0.00,VWS V13.01,2013-04-26 01:48:00,
2013-04-25 19:53:00,55.9,19.6,29.85,SSW,200,0.0,1.0,24,0.00,,---,0.00,VWS V13.01,2013-04-26 01:53:00,
2013-04-25 19:58:00,55.6,19.4,29.85,WSW,239,0.0,1.0,24,0.00,,---,0.00,VWS V13.01,2013-04-26 01:58:00,
2013-04-25 20:03:00,55.3,21.0,29.87,WSW,254,0.0,0.0,26,0.00,,---,0.00,VWS V13.01,2013-04-26 02:03:00,
2013-04-25 20:08:00,54.8,20.6,29.87,North,9,0.0,1.0,26,0.00,,---,0.00,VWS V13.01,2013-04-26 02:08:00,
2013-04-25 20:13:00,54.2,20.1,29.87,SW,220,0.0,1.0,26,0.00,,---,0.00,VWS V13.01,2013-04-26 02:13:00,
2013-04-25 20:18:00,53.6,20.5,29.87,SW,220,0.0,0.0,27,0.00,,---,0.00,VWS V13.01,2013-04-26 02:18:00,
2013-04-25 20:23:00,52.9,19.9,29.87,WSW,254,0.0,4.0,27,0.00,,---,0.00,VWS V13.01,2013-04-26 02:23:00,
2013-04-25 20:28:00,52.8,22.2,29.87,West,263,0.0,0.0,30,0.00,,---,0.00,VWS V13.01,2013-04-26 02:28:00,
2013-04-25 20:33:00,52.3,20.2,29.88,WSW,258,0.0,1.0,28,0.00,,---,0.00,VWS V13.01,2013-04-26 02:33:00,
2013-04-25 20:38:00,51.6,19.6,29.88,SSE,147,0.0,3.0,28,0.00,,---,0.00,VWS V13.01,2013-04-26 02:38:00,
2013-04-25 20:43:00,51.4,22.5,29.88,SE,146,1.0,1.0,32,0.00,,---,0.00,VWS V13.01,2013-04-26 02:43:00,
2013-04-25 20:48:00,51.4,21.8,29.90,SW,217,0.0,0.0,31,0.00,,---,0.00,VWS V13.01,2013-04-26 02:48:00,
2013-04-25 20:53:00,50.8,22.0,29.90,NW,325,0.0,2.0,32,0.00,,---,0.00,VWS V13.01,2013-04-26 02:53:00,
2013-04-25 20:58:00,50.5,23.2,29.90,NW,325,0.0,0.0,34,0.00,,---,0.00,VWS V13.01,2013-04-26 02:58:00,
2013-04-25 21:04:00,50.1,23.5,29.92,NW,325,0.0,0.0,35,0.00,,---,0.00,VWS V13.01,2013-04-26 03:04:00,
2013-04-25 21:09:00,49.6,23.8,29.92,NW,325,0.0,0.0,36,0.00,,---,0.00,VWS V13.01,2013-04-26 03:09:00,
2013-04-25 21:14:00,49.1,24.6,29.92,NW,325,0.0,0.0,38,0.00,,---,0.00,VWS V13.01,2013-04-26 03:14:00,
2013-04-25 21:19:00,48.6,24.2,29.92,East,90,0.0,2.0,38,0.00,,---,0.00,VWS V13.01,2013-04-26 03:19:00,
2013-04-25 21:24:00,48.3,24.5,29.92,East,90,0.0,0.0,39,0.00,,---,0.00,VWS V13.01,2013-04-26 03:24:00,
2013-04-25 21:29:00,48.2,23.2,29.92,East,90,0.0,0.0,37,0.00,,---,0.00,VWS V13.01,2013-04-26 03:29:00,
2013-04-25 21:34:00,48.0,23.0,29.94,East,90,0.0,1.0,37,0.00,,---,0.00,VWS V13.01,2013-04-26 03:34:00,
2013-04-25 21:39:00,48.0,23.6,29.94,East,96,1.0,2.0,38,0.00,,---,0.00,VWS V13.01,2013-04-26 03:39:00,
2013-04-25 21:44:00,48.0,24.2,29.94,East,96,0.0,1.0,39,0.00,,---,0.00,VWS V13.01,2013-04-26 03:44:00,
2013-04-25 21:49:00,48.2,23.8,29.95,SSE,167,0.0,0.0,38,0.00,,---,0.00,VWS V13.01,2013-04-26 03:49:00,
2013-04-25 21:54:00,48.3,24.5,29.95,West,269,0.0,2.0,39,0.00,,---,0.00,VWS V13.01,2013-04-26 03:54:00,
2013-04-25 21:59:00,48.6,21.5,29.95,East,92,0.0,3.0,34,0.00,,---,0.00,VWS V13.01,2013-04-26 03:59:00,
2013-04-25 22:01:00,48.9,24.4,29.95,East,92,0.0,3.0,38,0.00,,---,0.00,VWS V13.01,2013-04-26 04:01:00,
2013-04-25 22:02:00,48.9,23.1,29.95,East,92,0.0,0.0,36,0.00,,---,0.00,VWS V13.01,2013-04-26 04:02:00,
2013-04-25 22:03:00,48.9,23.8,29.95,East,92,0.0,0.0,37,0.00,,---,0.00,VWS V13.01,2013-04-26 04:03:00,
2013-04-25 22:08:00,48.8,24.3,29.95,ESE,105,0.0,0.0,38,0.00,,---,0.00,VWS V13.01,2013-04-26 04:08:00,
2013-04-25 22:13:00,48.8,21.7,29.95,ESE,107,0.0,0.0,34,0.00,,---,0.00,VWS V13.01,2013-04-26 04:13:00,
2013-04-25 22:18:00,48.8,25.6,29.93,NW,321,0.0,0.0,40,0.00,,---,0.00,VWS V13.01,2013-04-26 04:18:00,
2013-04-25 22:23:00,48.6,22.2,29.93,North,355,0.0,1.0,35,0.00,,---,0.00,VWS V13.01,2013-04-26 04:23:00,
2013-04-25 22:28:00,48.3,26.3,29.93,North,355,0.0,0.0,42,0.00,,---,0.00,VWS V13.01,2013-04-26 04:28:00,
2013-04-25 22:33:00,47.9,24.1,29.94,North,355,0.0,0.0,39,0.00,,---,0.00,VWS V13.01,2013-04-26 04:33:00,
2013-04-25 22:39:00,47.4,24.3,29.94,North,355,0.0,0.0,40,0.00,,---,0.00,VWS V13.01,2013-04-26 04:39:00,
2013-04-25 22:44:00,47.0,25.7,29.94,North,355,0.0,1.0,43,0.00,,---,0.00,VWS V13.01,2013-04-26 04:44:00,
2013-04-25 22:49:00,46.8,25.5,29.94,ENE,57,0.0,2.0,43,0.00,,---,0.00,VWS V13.01,2013-04-26 04:49:00,
2013-04-25 22:54:00,46.8,24.4,29.94,East,84,0.0,3.0,41,0.00,,---,0.00,VWS V13.01,2013-04-26 04:54:00,
2013-04-25 22:59:00,46.8,25.5,29.94,SSE,166,0.0,1.0,43,0.00,,---,0.00,VWS V13.01,2013-04-26 04:59:00,
2013-04-25 23:04:00,47.0,26.2,29.95,NNW,329,0.0,0.0,44,0.00,,---,0.00,VWS V13.01,2013-04-26 05:04:00,
2013-04-25 23:09:00,46.8,26.0,29.95,NNW,330,0.0,0.0,44,0.00,,---,0.00,VWS V13.01,2013-04-26 05:09:00,
2013-04-25 23:14:00,46.5,25.8,29.95,NNW,329,0.0,0.0,44,0.00,,---,0.00,VWS V13.01,2013-04-26 05:14:00,
2013-04-25 23:19:00,46.2,25.5,29.94,NNW,330,0.0,0.0,44,0.00,,---,0.00,VWS V13.01,2013-04-26 05:19:00,
2013-04-25 23:24:00,46.1,24.9,29.94,NW,324,0.0,1.0,43,0.00,,---,0.00,VWS V13.01,2013-04-26 05:24:00,
2013-04-25 23:29:00,46.1,25.4,29.94,NW,322,0.0,1.0,44,0.00,,---,0.00,VWS V13.01,2013-04-26 05:29:00,
2013-04-25 23:34:00,46.1,25.4,29.95,NW,321,0.0,0.0,44,0.00,,---,0.00,VWS V13.01,2013-04-26 05:34:00,
2013-04-25 23:39:00,46.0,24.2,29.95,NW,321,0.0,0.0,42,0.00,,---,0.00,VWS V13.01,2013-04-26 05:39:00,
2013-04-25 23:44:00,45.8,26.2,29.95,NW,321,0.0,0.0,46,0.00,,---,0.00,VWS V13.01,2013-04-26 05:44:00,
2013-04-25 23:49:00,45.7,25.6,29.95,NW,321,0.0,0.0,45,0.00,,---,0.00,VWS V13.01,2013-04-26 05:49:00,
2013-04-25 23:55:00,45.5,26.5,29.95,NW,321,0.0,1.0,47,0.00,,---,0.00,VWS V13.01,2013-04-26 05:55:00,